sat.trackr.live / text

‹ back to catalog

STARLINK-32764

NORAD 62570 · 2025-006S

PAYLOAD ACTIVE UNKNOWN

§ Identity

Operator
Country
US
Launch date
2025-01-10
Launch site
AFETR
Launch vehicle
Mass (kg)
RCS (m²)

Purposes: comms

External: N2YO · Heavens-Above · Gunter

§ Orbital elements

Epoch: 2026-09-21T08:39:25.797600Z

Period
94.27 min
Inclination
43.0006°
Eccentricity
0.0001512
Mean motion
15.27586416 rev/d
Perigee alt
482.0 km
Apogee alt
484.1 km
Semi-major
6,861.2 km
B*
3.0500e-4
RAAN
267.9025°
Arg perigee
266.6910°
Mean anomaly
93.3769°
Rev number
9,478

§ Raw data

STARLINK-327641 62570U 25006S   26264.36071525  .00008142  00000+0  30500-3 0  99972 62570  43.0006 267.9025 0001512 266.6910  93.3769 15.27586416 94785

JSON: /api/v1/satellites/62570 · /tle

For live sub-satellite position, see the globe view (requires WebGL).

§ Visibility from observer

Set your observer location to see the next 7 days of passes ≥ 10°. The values pass through the URL so the page stays shareable.

No JS? Fill the form by hand. The geolocation button needs JavaScript.